Weather History for Hill City, KS

Change the Weather History Date:

Thursday, February 7, 2013

  Actual Average Record
Temperature  
Mean Temperature 41 °F 31 °F  
Max Temperature 57 °F 44 °F 71 °F (1996)
Min Temperature 24 °F 18 °F -16 °F (1985)
Degree Days  
Heating Degree Days 24    
Moisture  
Dew Point 26 °F    
Average Humidity 57    
Maximum Humidity 82    
Minimum Humidity 28    
Precipitation  
Precipitation 0.00 in 0.02 in 0.03 in (1997)
Month to date precipitation 0.00 0.13  
Year to date precipitation 0.09 0.58  
Sea Level Pressure  
Sea Level Pressure 30.10 in    
Wind  
Wind Speed 14 mph (North)    
Max Wind Speed 24 mph    
Max Gust Speed 32 mph    
Visibility 10 miles    
Events      
T = Trace of Precipitation, MM = Missing Value Source: NWS Daily Summary

Daily Weather History Graph

Daily Weather History Graph

Search for Another Location

Airport:

Trip Planner

Search our weather history database for the weather conditions in past years. The results will help you decide how hot, cold, wet, or windy it might be!

Date:

Astronomy

Feb. 07, 2013 Rise Set
Actual Time 7:40 AM CST 6:07 PM CST
Civil Twilight 7:12 AM CST 6:35 PM CST
Nautical Twilight 6:40 AM CST 7:06 PM CST
Astronomical Twilight 6:09 AM CST 7:38 PM CST
Moon 5:20 AM CST (2/7) 3:34 PM CST (2/7)
Length of Visible Light 11h 22m
Length of Day
10h 27m
Waning Crescent, 9% of the Moon is Illuminated
Feb 7
Waning Crescent
Feb 10
New
Feb 17
First Quarter
Feb 25
Full
Mar 4
Last Quarter

Hourly Weather History & Observations

Time (CST) Temp. Windchill Dew Point Humidity Pressure Visibility Wind Dir Wind Speed Gust Speed Precip Events Conditions
12:53 AM 43.0 °F 36.8 °F 37.9 °F 82% 29.91 in 10.0 mi NNW 11.5 mph - N/A   Mostly Cloudy
1:53 AM 44.1 °F 35.2 °F 33.1 °F 65% 29.91 in 10.0 mi NNW 23.0 mph 28.8 mph N/A   Overcast
2:53 AM 43.0 °F 33.5 °F 30.9 °F 62% 29.92 in 10.0 mi North 24.2 mph 32.2 mph N/A   Overcast
3:53 AM 42.1 °F 33.1 °F 28.9 °F 60% 29.94 in 10.0 mi North 20.7 mph 27.6 mph N/A   Scattered Clouds
4:53 AM 41.0 °F 32.8 °F 28.9 °F 62% 29.96 in 10.0 mi North 16.1 mph - N/A   Mostly Cloudy
5:53 AM 41.0 °F 33.1 °F 28.9 °F 62% 30.02 in 10.0 mi NNW 15.0 mph 23.0 mph N/A   Mostly Cloudy
6:53 AM 37.9 °F 30.9 °F 28.0 °F 68% 30.06 in 10.0 mi NNW 10.4 mph - N/A   Clear
7:53 AM 37.0 °F 29.3 °F 28.0 °F 70% 30.09 in 10.0 mi North 11.5 mph - N/A   Clear
8:53 AM 37.0 °F 28.5 °F 28.0 °F 70% 30.14 in 10.0 mi NNW 13.8 mph - N/A   Clear
9:53 AM 44.1 °F 36.2 °F 28.9 °F 55% 30.16 in 10.0 mi North 18.4 mph - N/A   Clear
10:53 AM 48.9 °F - 27.0 °F 43% 30.17 in 10.0 mi North 17.3 mph 23.0 mph N/A   Clear
11:53 AM 52.0 °F - 26.1 °F 37% 30.14 in 10.0 mi North 18.4 mph - N/A   Clear
12:53 PM 54.0 °F - 26.1 °F 34% 30.12 in 10.0 mi North 16.1 mph 21.9 mph N/A   Clear
1:53 PM 55.0 °F - 25.0 °F 31% 30.10 in 10.0 mi North 13.8 mph 19.6 mph N/A   Clear
2:53 PM 57.0 °F - 25.0 °F 29% 30.09 in 10.0 mi NNE 11.5 mph - N/A   Clear
3:53 PM 55.9 °F - 23.0 °F 28% 30.10 in 10.0 mi North 11.5 mph 20.7 mph N/A   Clear
4:53 PM 55.0 °F - 23.0 °F 29% 30.11 in 10.0 mi North 12.7 mph - N/A   Clear
6:53 PM 36.0 °F 33.3 °F 23.0 °F 59% 30.18 in 10.0 mi NE 3.5 mph - N/A   Clear
7:53 PM 33.1 °F - 21.9 °F 64% 30.20 in 10.0 mi Calm Calm - N/A   Clear
8:53 PM 28.9 °F 25.2 °F 21.0 °F 72% 30.23 in 10.0 mi West 3.5 mph - N/A   Clear
9:53 PM 27.0 °F - 19.9 °F 75% 30.23 in 10.0 mi Calm Calm - N/A   Clear
10:53 PM 26.1 °F - 19.9 °F 78% 30.23 in 10.0 mi Calm Calm - N/A   Clear
11:53 PM 26.1 °F - 21.0 °F 81% 30.23 in 10.0 mi Calm Calm - N/A   Clear